(63) Ausonia
ephemeris date magn radius delta ra dec elong phase
Opposition2 Aug 20259.32.136 AU1.124 AU20h57m-22°28'174.9°2.4°
Today7 Sep 202510.32.171 AU1.298 AU20h30m-21°40'140.2°17.3°
(63) Ausonia - 2025-09-07
astro.vanbuitenen.nl


 
-1 year
-1 month
-1 day
Now
+1 day
+1 month
+1 year

The interactive orbit chart above shows the body's path through the solar system and its position at the given date. Green and blue lines are shown perpendicular to the ecliptic plane: Green if the path is above the ecliptic plane, blue if it is below. (Left-click and drag to rotate the view; Right-click and drag to move the view; Use scroll wheel to zoom in our out.)

The orbital elements of Ausonia are:

            e (Eccentricity)                : 0.1282281
            a (Semimajor axis)              : 2.3949157
            i (Inclination)                 : 5.77292
            Ω (Longitude of ascending node) : 337.68532
            ω (Argument of perihelion)      : 295.67012
            M (Mean anomaly)                : 4.87062
            Epoch                           : 2025 May 05

            L (Longitude of perihelion)     : 273.46936
            B (Latitude of perihelion)      : -5.20149
            P (Orbital period in years)     : 3.71            
        

The light curve chart below shows the estimated development of the minor planet's magnitude.


The all-sky chart below shows the path of the minor planet over the same period as the light curve. The current position is marked yellow.





The following chart shows the path of the minor planet in the next few days. The field of view is optimized for (~10x50) binoculars and finderscopes. A more printer-friendly version of the same chart can be found below.




Ephemerides:
Date       Time       RA (2000)    DEC (2000)    delta   radius  elong  phase   PA    magn
2025-09-07 00:00 UT   20 30 29.5   -21 40 36     1.298    2.171  140.2   17.3    73   10.3 
2025-09-07 06:10 UT   20 30 25.4   -21 39 46     1.300    2.171  140.0   17.4    73   10.3 
2025-09-08 00:00 UT   20 30 14.3   -21 37 17     1.307    2.172  139.2   17.6    73   10.3 
2025-09-09 00:00 UT   20 30 01.2   -21 33 54     1.315    2.173  138.2   18.0    73   10.3 
2025-09-10 00:00 UT   20 29 50.1   -21 30 25     1.324    2.174  137.2   18.3    73   10.4 
2025-09-11 00:00 UT   20 29 41.0   -21 26 51     1.333    2.175  136.3   18.7    74   10.4 
2025-09-12 00:00 UT   20 29 33.9   -21 23 11     1.343    2.176  135.3   19.0    74   10.4 
2025-09-13 00:00 UT   20 29 28.9   -21 19 28     1.352    2.177  134.3   19.3    74   10.5 
2025-09-14 00:00 UT   20 29 25.9   -21 15 39     1.362    2.178  133.3   19.6    74   10.5 
2025-09-15 00:00 UT   20 29 24.9   -21 11 45     1.371    2.180  132.4   19.9    74   10.5 
2025-09-16 00:00 UT   20 29 25.9   -21 07 47     1.381    2.181  131.4   20.2    74   10.5 
2025-09-17 00:00 UT   20 29 28.9   -21 03 45     1.391    2.182  130.5   20.5    74   10.6 
2025-09-18 00:00 UT   20 29 33.9   -20 59 38     1.401    2.183  129.5   20.8    74   10.6 
2025-09-19 00:00 UT   20 29 40.9   -20 55 26     1.411    2.184  128.6   21.1    75   10.6 
2025-09-20 00:00 UT   20 29 49.8   -20 51 10     1.421    2.185  127.7   21.3    75   10.6 
2025-09-21 00:00 UT   20 30 00.7   -20 46 50     1.432    2.186  126.8   21.6    75   10.7 
2025-09-22 00:00 UT   20 30 13.5   -20 42 25     1.443    2.188  125.9   21.8    75   10.7 
2025-09-23 00:00 UT   20 30 28.2   -20 37 56     1.453    2.189  125.0   22.1    75   10.7 
2025-09-24 00:00 UT   20 30 44.8   -20 33 23     1.464    2.190  124.1   22.3    75   10.7 
2025-09-25 00:00 UT   20 31 03.3   -20 28 45     1.475    2.191  123.2   22.5    75   10.8 
2025-09-26 00:00 UT   20 31 23.6   -20 24 04     1.486    2.192  122.3   22.7    75   10.8 
2025-09-27 00:00 UT   20 31 45.8   -20 19 18     1.497    2.193  121.4   23.0    75   10.8 
2025-09-28 00:00 UT   20 32 09.7   -20 14 28     1.508    2.195  120.5   23.2    75   10.8 
2025-09-29 00:00 UT   20 32 35.4   -20 09 35     1.520    2.196  119.7   23.4    75   10.9 
2025-09-30 00:00 UT   20 33 02.8   -20 04 37     1.531    2.197  118.8   23.5    75   10.9 
2025-10-01 00:00 UT   20 33 32.0   -19 59 35     1.543    2.198  118.0   23.7    75   10.9 
2025-10-02 00:00 UT   20 34 02.8   -19 54 30     1.554    2.199  117.1   23.9    75   10.9 
2025-10-03 00:00 UT   20 34 35.3   -19 49 20     1.566    2.200  116.3   24.1    75   10.9 
2025-10-04 00:00 UT   20 35 09.5   -19 44 07     1.578    2.202  115.5   24.2    75   11.0 
2025-10-05 00:00 UT   20 35 45.2   -19 38 50     1.590    2.203  114.6   24.4    75   11.0 
2025-10-06 00:00 UT   20 36 22.4   -19 33 29     1.602    2.204  113.8   24.5    75   11.0 
2025-10-07 00:00 UT   20 37 01.3   -19 28 04     1.614    2.205  113.0   24.7    75   11.0 


    Terminology:
            
    delta:  distance between minor planet and earth in AU
    radius: distance between minor planet and sun in AU
    magn:   magnitude (brightness) estimate    
    ra:     right ascension in hours (24h = 360deg)
    dec:    declination in degrees
    elong:  elongation in degrees (angle sun-earth-minor planet)    
    phase:  phase angle in degrees (angle sun-minor planet-earth)        
    AU:     Astronomical Unit (mean distance between earth and sun: 149597870.7 km
    

Orbital elements provided by the MPC (Minor Planet Center).
Calculations by a modified version of AAPlus, a C# implementation of the AA+ project by PJ Naughter from the algorithms presented in the book "Astronomical Algorithms" by Jean Meeus.
NGC2000 dso catalog and star labels from VizieR as provided by the Strasbourg astronomical Data Center.
Tycho2 catalog from the ESO archive.